sat.trackr.live / text

‹ back to catalog

HULIANWANG DIGUI-140

NORAD 67438 · 2026-007D

PAYLOAD ACTIVE UNKNOWN

§ Identity

Operator
Country
PRC
Launch date
2026-01-13
Launch site
WSC
Launch vehicle
Mass (kg)
RCS (m²)

External: N2YO · Heavens-Above · Gunter

§ Orbital elements

Epoch: 2026-09-20T06:47:19.125600Z

Period
108.33 min
Inclination
50.0042°
Eccentricity
0.0000394
Mean motion
13.29329800 rev/d
Perigee alt
1,149.0 km
Apogee alt
1,149.6 km
Semi-major
7,527.4 km
B*
2.3982e-5
RAAN
104.9834°
Arg perigee
28.0346°
Mean anomaly
332.0547°
Rev number
3,343

§ Raw data

HULIANWANG DIGUI-1401 67438U 26007D   26263.28286025 -.00000113  00000+0  23982-4 0  99982 67438  50.0042 104.9834 0000394  28.0346 332.0547 13.29329800 33433

JSON: /api/v1/satellites/67438 · /tle

For live sub-satellite position, see the globe view (requires WebGL).

§ Visibility from observer

Set your observer location to see the next 7 days of passes ≥ 10°. The values pass through the URL so the page stays shareable.

No JS? Fill the form by hand. The geolocation button needs JavaScript.